Time,TemperatureF,DewpointF,PressureIn,WindDirection,WindDirectionDegrees,WindSpeedMPH,WindSpeedGustMPH,Humidity,HourlyPrecipIn,Conditions,Clouds,dailyrainin,SoftwareType,DateUTC
2013-01-22 00:04:00,21.0,17.0,29.76,East,79,0.0,1.0,85,0.00,,,-99.99,,2013-01-22 05:04:00,
2013-01-22 00:12:00,21.0,17.0,29.76,East,79,0.0,1.0,85,0.00,,,-99.99,,2013-01-22 05:12:00,
2013-01-22 00:23:00,20.0,16.0,29.74,East,80,0.0,1.0,85,0.00,,,0.00,,2013-01-22 05:23:00,
2013-01-22 00:32:00,20.0,16.0,29.73,East,80,0.0,1.0,85,0.00,,,0.00,,2013-01-22 05:32:00,
2013-01-22 00:43:00,20.0,16.0,29.73,East,80,0.0,1.0,85,0.00,,,0.00,,2013-01-22 05:43:00,
2013-01-22 00:53:00,20.0,16.0,29.72,East,79,0.0,0.0,86,0.00,,,0.00,,2013-01-22 05:53:00,
2013-01-22 01:02:00,20.0,16.0,29.72,East,79,0.0,1.0,86,0.00,,,0.00,,2013-01-22 06:02:00,
2013-01-22 01:12:00,20.0,16.0,29.72,East,79,0.0,1.0,86,0.00,,,0.00,,2013-01-22 06:12:00,
2013-01-22 01:22:00,20.0,16.0,29.73,East,79,0.0,-999.0,86,-99.99,,,-99.99,,2013-01-22 06:22:00,
2013-01-22 01:32:00,20.0,16.0,29.72,East,79,0.0,0.0,86,0.00,,,0.00,,2013-01-22 06:32:00,
2013-01-22 01:43:00,20.0,16.0,29.72,East,79,0.0,0.0,86,0.00,,,0.00,,2013-01-22 06:43:00,
2013-01-22 01:53:00,19.0,16.0,29.72,East,80,0.0,1.0,86,0.00,,,0.00,,2013-01-22 06:53:00,
2013-01-22 02:02:00,19.0,16.0,29.72,East,79,0.0,2.0,86,0.00,,,0.00,,2013-01-22 07:02:00,
2013-01-22 02:12:00,19.0,16.0,29.72,East,79,0.0,2.0,86,0.00,,,0.00,,2013-01-22 07:12:00,
2013-01-22 02:22:00,19.0,16.0,29.74,NW,326,0.0,2.0,86,0.00,,,0.00,,2013-01-22 07:22:00,
2013-01-22 02:32:00,19.0,16.0,29.75,NNW,345,0.0,2.0,87,0.00,,,0.00,,2013-01-22 07:32:00,
2013-01-22 02:42:00,19.0,16.0,29.75,NNW,345,0.0,2.0,87,0.00,,,0.00,,2013-01-22 07:42:00,
2013-01-22 02:53:00,19.0,16.0,29.72,North,0,0.0,1.0,86,0.00,,,0.00,,2013-01-22 07:53:00,
2013-01-22 03:02:00,18.0,14.0,29.73,North,5,0.0,1.0,85,0.00,,,0.00,,2013-01-22 08:02:00,
2013-01-22 03:12:00,18.0,14.0,29.73,North,5,0.0,1.0,85,0.00,,,0.00,,2013-01-22 08:12:00,
2013-01-22 03:22:00,18.0,15.0,29.72,North,0,0.0,1.0,86,0.00,,,0.00,,2013-01-22 08:22:00,
2013-01-22 03:32:00,18.0,15.0,29.72,North,0,0.0,1.0,87,0.00,,,0.00,,2013-01-22 08:32:00,
2013-01-22 03:42:00,18.0,15.0,29.72,North,0,0.0,1.0,87,0.00,,,0.00,,2013-01-22 08:42:00,
2013-01-22 03:53:00,18.0,15.0,29.73,North,0,0.0,0.0,86,0.00,,,0.00,,2013-01-22 08:53:00,
2013-01-22 04:02:00,18.0,15.0,29.73,NNW,346,0.0,1.0,87,0.00,,,0.00,,2013-01-22 09:02:00,
2013-01-22 04:12:00,18.0,15.0,29.73,NNW,346,0.0,1.0,87,0.00,,,0.00,,2013-01-22 09:12:00,
2013-01-22 04:22:00,18.0,15.0,29.72,NW,322,0.0,2.0,87,0.00,,,0.00,,2013-01-22 09:22:00,
2013-01-22 04:32:00,19.0,16.0,29.72,WNW,285,1.0,2.0,87,0.00,,,0.00,,2013-01-22 09:32:00,
2013-01-22 04:42:00,19.0,16.0,29.72,WNW,285,1.0,2.0,87,0.00,,,0.00,,2013-01-22 09:42:00,
2013-01-22 04:53:00,19.0,16.0,29.73,WNW,302,1.0,5.0,87,0.00,,,0.00,,2013-01-22 09:53:00,
2013-01-22 05:02:00,19.0,16.0,29.73,WNW,291,1.0,6.0,86,0.00,,,0.00,,2013-01-22 10:02:00,
2013-01-22 05:12:00,19.0,16.0,29.73,WNW,291,1.0,6.0,86,0.00,,,0.00,,2013-01-22 10:12:00,
2013-01-22 05:22:00,19.0,15.0,29.73,NW,312,5.0,11.0,85,0.00,,,0.00,,2013-01-22 10:22:00,
2013-01-22 05:32:00,19.0,15.0,29.75,NW,316,3.0,11.0,85,0.00,,,0.00,,2013-01-22 10:32:00,
2013-01-22 05:42:00,19.0,15.0,29.75,NW,316,3.0,11.0,85,0.00,,,0.00,,2013-01-22 10:42:00,
2013-01-22 05:53:00,18.0,14.0,29.75,WNW,302,5.0,13.0,83,0.00,,,0.00,,2013-01-22 10:53:00,
2013-01-22 06:02:00,18.0,13.0,29.76,WNW,282,5.0,13.0,81,0.00,,,0.00,,2013-01-22 11:02:00,
2013-01-22 06:12:00,18.0,13.0,29.76,WNW,282,5.0,13.0,81,0.00,,,0.00,,2013-01-22 11:12:00,
2013-01-22 06:23:00,17.0,12.0,29.76,NW,325,12.0,-999.0,80,-99.99,,,-99.99,,2013-01-22 11:23:00,
2013-01-22 06:33:00,17.0,11.0,29.77,WNW,282,11.0,-999.0,78,-99.99,,,-99.99,,2013-01-22 11:33:00,
2013-01-22 06:43:00,17.0,11.0,29.77,WNW,282,11.0,-999.0,78,-99.99,,,-99.99,,2013-01-22 11:43:00,
2013-01-22 06:53:00,17.0,10.0,29.78,WNW,301,5.0,-999.0,75,-99.99,,,-99.99,,2013-01-22 11:53:00,
2013-01-22 07:04:00,16.0,9.0,29.79,WNW,295,11.0,-999.0,73,-99.99,,,-99.99,,2013-01-22 12:04:00,
2013-01-22 07:13:00,16.0,9.0,29.79,WNW,295,11.0,-999.0,73,-99.99,,,-99.99,,2013-01-22 12:13:00,
2013-01-22 07:23:00,16.0,8.0,29.79,WNW,288,7.0,-999.0,71,-99.99,,,-99.99,,2013-01-22 12:23:00,
2013-01-22 07:33:00,16.0,8.0,29.79,WNW,288,7.0,-999.0,71,-99.99,,,-99.99,,2013-01-22 12:33:00,
2013-01-22 07:43:00,16.0,8.0,29.79,WNW,290,18.0,-999.0,71,-99.99,,,-99.99,,2013-01-22 12:43:00,
2013-01-22 07:53:00,16.0,8.0,29.80,WNW,294,15.0,-999.0,69,-99.99,,,-99.99,,2013-01-22 12:53:00,
2013-01-22 08:04:00,16.0,7.0,29.80,West,278,12.0,-999.0,68,-99.99,,,-99.99,,2013-01-22 13:04:00,
2013-01-22 08:13:00,16.0,7.0,29.80,West,278,12.0,-999.0,68,-99.99,,,-99.99,,2013-01-22 13:13:00,
2013-01-22 08:23:00,16.0,7.0,29.81,West,275,17.0,-999.0,66,-99.99,,,-99.99,,2013-01-22 13:23:00,
2013-01-22 08:33:00,16.0,6.0,29.82,WNW,301,17.0,-999.0,64,-99.99,,,-99.99,,2013-01-22 13:33:00,
2013-01-22 08:43:00,16.0,6.0,29.82,WNW,301,17.0,-999.0,64,-99.99,,,-99.99,,2013-01-22 13:43:00,
2013-01-22 08:54:00,17.0,5.0,29.82,WNW,285,10.0,-999.0,59,-99.99,,,-99.99,,2013-01-22 13:54:00,
2013-01-22 09:03:00,17.0,4.0,29.83,WNW,297,9.0,-999.0,57,-99.99,,,-99.99,,2013-01-22 14:03:00,
2013-01-22 09:13:00,17.0,4.0,29.83,WNW,297,9.0,-999.0,57,-99.99,,,-99.99,,2013-01-22 14:13:00,
2013-01-22 09:23:00,17.0,2.0,29.83,WNW,296,18.0,-999.0,51,-99.99,,,-99.99,,2013-01-22 14:23:00,
2013-01-22 09:34:00,17.0,2.0,29.83,NW,310,17.0,-999.0,50,-99.99,,,-99.99,,2013-01-22 14:34:00,
2013-01-22 09:44:00,17.0,2.0,29.83,NW,310,17.0,-999.0,50,-99.99,,,-99.99,,2013-01-22 14:44:00,
2013-01-22 09:54:00,18.0,1.0,29.84,West,273,15.0,-999.0,47,-99.99,,,-99.99,,2013-01-22 14:54:00,
2013-01-22 10:03:00,18.0,0.0,29.85,West,271,17.0,-999.0,45,-99.99,,,-99.99,,2013-01-22 15:03:00,
2013-01-22 10:13:00,18.0,0.0,29.85,West,271,17.0,-999.0,45,-99.99,,,-99.99,,2013-01-22 15:13:00,
2013-01-22 10:24:00,18.0,-1.0,29.85,WNW,301,19.0,-999.0,43,-99.99,,,-99.99,,2013-01-22 15:24:00,
2013-01-22 10:34:00,18.0,-2.0,29.86,NW,318,16.0,-999.0,41,-99.99,,,-99.99,,2013-01-22 15:34:00,
2013-01-22 10:43:00,18.0,-2.0,29.86,NW,318,16.0,-999.0,41,-99.99,,,-99.99,,2013-01-22 15:43:00,
2013-01-22 10:54:00,19.0,-2.0,29.85,West,278,26.0,-999.0,38,-99.99,,,-99.99,,2013-01-22 15:54:00,
2013-01-22 11:03:00,19.0,-2.0,29.85,West,278,26.0,-999.0,38,-99.99,,,-99.99,,2013-01-22 16:03:00,
2013-01-22 11:13:00,19.0,-2.0,29.85,West,278,26.0,-999.0,38,-99.99,,,-99.99,,2013-01-22 16:13:00,
2013-01-22 11:23:00,19.0,-1.0,29.85,West,274,4.0,-999.0,40,-99.99,,,-99.99,,2013-01-22 16:23:00,
2013-01-22 11:33:00,19.0,-4.0,29.86,NW,323,19.0,-999.0,36,-99.99,,,-99.99,,2013-01-22 16:33:00,
2013-01-22 11:43:00,19.0,-4.0,29.86,NW,323,19.0,-999.0,36,-99.99,,,-99.99,,2013-01-22 16:43:00,
2013-01-22 11:54:00,19.0,-4.0,29.85,NW,306,23.0,-999.0,36,-99.99,,,-99.99,,2013-01-22 16:54:00,
2013-01-22 12:03:00,20.0,-2.0,29.84,WNW,291,14.0,-999.0,37,-99.99,,,-99.99,,2013-01-22 17:03:00,
2013-01-22 12:13:00,20.0,-2.0,29.84,WNW,291,14.0,-999.0,37,-99.99,,,-99.99,,2013-01-22 17:13:00,
2013-01-22 12:23:00,20.0,-3.0,29.84,NW,314,9.0,-999.0,35,-99.99,,,-99.99,,2013-01-22 17:23:00,
2013-01-22 12:34:00,20.0,-2.0,29.83,West,267,23.0,-999.0,37,-99.99,,,-99.99,,2013-01-22 17:34:00,
2013-01-22 12:44:00,20.0,-2.0,29.83,West,267,23.0,-999.0,37,-99.99,,,-99.99,,2013-01-22 17:44:00,
2013-01-22 12:54:00,20.0,-3.0,29.83,NW,311,15.0,-999.0,35,-99.99,,,-99.99,,2013-01-22 17:54:00,
2013-01-22 13:04:00,20.0,-3.0,29.83,WNW,303,20.0,-999.0,35,-99.99,,,-99.99,,2013-01-22 18:04:00,
2013-01-22 13:13:00,20.0,-3.0,29.83,WNW,303,20.0,-999.0,35,-99.99,,,-99.99,,2013-01-22 18:13:00,
2013-01-22 13:23:00,20.0,-3.0,29.83,West,279,15.0,-999.0,35,-99.99,,,-99.99,,2013-01-22 18:23:00,
2013-01-22 13:34:00,20.0,-3.0,29.83,WNW,300,22.0,-999.0,35,-99.99,,,-99.99,,2013-01-22 18:34:00,
2013-01-22 13:43:00,20.0,-3.0,29.83,WNW,300,22.0,-999.0,35,-99.99,,,-99.99,,2013-01-22 18:43:00,
2013-01-22 13:54:00,20.0,-3.0,29.83,WNW,288,14.0,-999.0,35,-99.99,,,-99.99,,2013-01-22 18:54:00,
2013-01-22 14:03:00,21.0,-2.0,29.84,West,274,7.0,-999.0,35,-99.99,,,-99.99,,2013-01-22 19:03:00,
2013-01-22 14:13:00,21.0,-2.0,29.84,West,274,7.0,-999.0,35,-99.99,,,-99.99,,2013-01-22 19:13:00,
2013-01-22 14:24:00,20.0,-4.0,29.84,North,350,12.0,-999.0,33,-99.99,,,-99.99,,2013-01-22 19:24:00,
2013-01-22 14:34:00,20.0,-5.0,29.84,West,269,17.0,22.0,32,0.00,,,0.00,,2013-01-22 19:34:00,
2013-01-22 14:43:00,20.0,-5.0,29.84,West,269,17.0,22.0,32,0.00,,,0.00,,2013-01-22 19:43:00,
2013-01-22 14:54:00,20.0,-4.0,29.85,NW,304,11.0,19.0,34,0.00,,,0.00,,2013-01-22 19:54:00,
2013-01-22 15:03:00,20.0,-5.0,29.86,WNW,303,10.0,22.0,32,0.00,,,0.00,,2013-01-22 20:03:00,
2013-01-22 15:13:00,20.0,-5.0,29.86,WNW,303,10.0,22.0,32,0.00,,,0.00,,2013-01-22 20:13:00,
2013-01-22 15:23:00,20.0,-3.0,29.86,NW,306,11.0,18.0,35,0.00,,,0.00,,2013-01-22 20:23:00,
2013-01-22 15:33:00,20.0,-5.0,29.86,NW,324,14.0,24.0,32,0.00,,,0.00,,2013-01-22 20:33:00,
2013-01-22 15:43:00,20.0,-5.0,29.86,NW,324,14.0,24.0,32,0.00,,,0.00,,2013-01-22 20:43:00,
2013-01-22 15:53:00,19.0,-7.0,29.87,NW,304,15.0,25.0,31,0.00,,,0.00,,2013-01-22 20:53:00,
2013-01-22 16:03:00,19.0,-7.0,29.88,WNW,294,16.0,24.0,31,0.00,,,0.00,,2013-01-22 21:03:00,
2013-01-22 16:13:00,19.0,-7.0,29.88,WNW,294,16.0,24.0,31,0.00,,,0.00,,2013-01-22 21:13:00,
2013-01-22 16:23:00,19.0,-6.0,29.89,WNW,284,14.0,22.0,32,0.00,,,0.00,,2013-01-22 21:23:00,
2013-01-22 16:33:00,18.0,-6.0,29.89,NW,321,14.0,25.0,34,0.00,,,0.00,,2013-01-22 21:33:00,
2013-01-22 16:43:00,18.0,-6.0,29.89,NW,321,14.0,25.0,34,0.00,,,0.00,,2013-01-22 21:43:00,
2013-01-22 16:53:00,17.0,-7.0,29.91,WNW,283,16.0,23.0,33,0.00,,,0.00,,2013-01-22 21:53:00,
2013-01-22 17:03:00,17.0,-6.0,29.92,NW,308,15.0,20.0,35,0.00,,,0.00,,2013-01-22 22:03:00,
2013-01-22 17:13:00,17.0,-6.0,29.92,NW,308,15.0,20.0,35,0.00,,,0.00,,2013-01-22 22:13:00,
2013-01-22 17:23:00,16.0,-6.0,29.93,WNW,294,14.0,20.0,37,0.00,,,0.00,,2013-01-22 22:23:00,
2013-01-22 17:33:00,16.0,-6.0,29.93,WNW,294,14.0,20.0,37,0.00,,,0.00,,2013-01-22 22:33:00,
2013-01-22 17:43:00,16.0,-6.0,29.92,NW,320,13.0,23.0,37,0.00,,,0.00,,2013-01-22 22:43:00,
2013-01-22 17:53:00,16.0,-5.0,29.94,West,269,19.0,29.0,38,0.00,,,0.00,,2013-01-22 22:53:00,
2013-01-22 18:03:00,16.0,-6.0,29.96,NW,304,14.0,24.0,37,0.00,,,0.00,,2013-01-22 23:03:00,
2013-01-22 18:12:00,16.0,-6.0,29.96,NW,304,14.0,24.0,37,0.00,,,0.00,,2013-01-22 23:12:00,
2013-01-22 18:24:00,15.0,-7.0,29.96,WNW,303,9.0,21.0,37,0.00,,,0.00,,2013-01-22 23:24:00,
2013-01-22 18:33:00,15.0,-7.0,29.96,WNW,295,7.0,16.0,37,0.00,,,0.00,,2013-01-22 23:33:00,
2013-01-22 18:43:00,15.0,-7.0,29.96,WNW,295,7.0,16.0,37,0.00,,,0.00,,2013-01-22 23:43:00,
2013-01-22 18:53:00,15.0,-6.0,29.97,West,280,9.0,17.0,38,0.00,,,0.00,,2013-01-22 23:53:00,
2013-01-22 19:03:00,14.0,-7.0,29.98,NW,318,7.0,13.0,38,0.00,,,0.00,,2013-01-23 00:03:00,
2013-01-22 19:12:00,14.0,-7.0,29.98,NW,318,7.0,13.0,38,0.00,,,0.00,,2013-01-23 00:12:00,
2013-01-22 19:23:00,14.0,-7.0,29.98,NW,312,6.0,9.0,38,0.00,,,0.00,,2013-01-23 00:23:00,
2013-01-22 19:33:00,13.0,-7.0,29.99,NW,317,5.0,9.0,39,0.00,,,0.00,,2013-01-23 00:33:00,
2013-01-22 19:43:00,13.0,-7.0,29.99,NW,317,5.0,9.0,39,0.00,,,0.00,,2013-01-23 00:43:00,
2013-01-22 19:53:00,13.0,-6.0,30.00,WNW,297,8.0,12.0,41,0.00,,,0.00,,2013-01-23 00:53:00,
2013-01-22 20:03:00,13.0,-6.0,29.99,NW,318,8.0,12.0,42,0.00,,,0.00,,2013-01-23 01:03:00,
2013-01-22 20:13:00,13.0,-6.0,29.99,NW,318,8.0,12.0,42,0.00,,,0.00,,2013-01-23 01:13:00,
2013-01-22 20:23:00,13.0,-6.0,29.99,West,278,5.0,12.0,42,0.00,,,0.00,,2013-01-23 01:23:00,
2013-01-22 20:33:00,13.0,-4.0,30.00,WNW,289,8.0,15.0,45,0.00,,,0.00,,2013-01-23 01:33:00,
2013-01-22 20:43:00,13.0,-4.0,30.00,WNW,289,8.0,15.0,45,0.00,,,0.00,,2013-01-23 01:43:00,
2013-01-22 20:52:00,12.0,-4.0,30.01,WNW,297,7.0,12.0,47,0.00,,,0.00,,2013-01-23 01:52:00,
2013-01-22 21:03:00,12.0,-3.0,30.01,NW,308,7.0,14.0,49,0.00,,,0.00,,2013-01-23 02:03:00,
2013-01-22 21:13:00,12.0,-3.0,30.01,NW,308,7.0,14.0,49,0.00,,,0.00,,2013-01-23 02:13:00,
2013-01-22 21:23:00,12.0,-3.0,30.01,WSW,247,11.0,18.0,50,0.00,,,0.00,,2013-01-23 02:23:00,
2013-01-22 21:33:00,12.0,-3.0,30.01,WNW,291,6.0,19.0,50,0.00,,,0.00,,2013-01-23 02:33:00,
2013-01-22 21:43:00,12.0,-3.0,30.01,WNW,291,6.0,19.0,50,0.00,,,0.00,,2013-01-23 02:43:00,
2013-01-22 21:53:00,12.0,-3.0,30.01,WNW,293,6.0,11.0,51,0.00,,,0.00,,2013-01-23 02:53:00,
2013-01-22 22:03:00,12.0,-3.0,30.02,WNW,301,9.0,14.0,51,0.00,,,0.00,,2013-01-23 03:03:00,
2013-01-22 22:13:00,12.0,-3.0,30.02,WNW,301,9.0,14.0,51,0.00,,,0.00,,2013-01-23 03:13:00,
2013-01-22 22:23:00,11.0,-3.0,30.03,WNW,284,6.0,9.0,53,0.00,,,0.00,,2013-01-23 03:23:00,
2013-01-22 22:33:00,11.0,-2.0,30.03,WNW,296,6.0,11.0,55,0.00,,,0.00,,2013-01-23 03:33:00,
2013-01-22 22:43:00,11.0,-2.0,30.03,WNW,296,6.0,11.0,55,0.00,,,0.00,,2013-01-23 03:43:00,
2013-01-22 22:53:00,11.0,0.0,30.03,WNW,292,11.0,17.0,60,0.00,,,0.00,,2013-01-23 03:53:00,
2013-01-22 23:03:00,11.0,1.0,30.04,NW,312,14.0,21.0,62,0.00,,,0.00,,2013-01-23 04:03:00,
2013-01-22 23:13:00,11.0,1.0,30.04,NW,312,14.0,21.0,62,0.00,,,0.00,,2013-01-23 04:13:00,
2013-01-22 23:23:00,11.0,2.0,30.04,NW,304,9.0,24.0,65,0.00,,,0.00,,2013-01-23 04:23:00,
2013-01-22 23:33:00,11.0,2.0,30.03,WNW,297,10.0,18.0,65,0.00,,,0.00,,2013-01-23 04:33:00,
2013-01-22 23:43:00,11.0,2.0,30.03,WNW,297,10.0,18.0,65,0.00,,,0.00,,2013-01-23 04:43:00,
2013-01-22 23:53:00,10.0,0.0,30.04,WNW,284,6.0,15.0,64,0.00,,,0.00,,2013-01-23 04:53:00,